STARLINK-1733 (46564 NORAD) Tracking and Keplerian Element Data

This shows tracking and keplerian element data for the satellite.

Feedback or suggestion? Click here.




ElementValue
Catalog46564
NameSTARLINK-1733
Epoch Orbit180
Epoch Day332.91668981
Epoch Year2020
RAAN184.7719
Inclination52.9986
Eccentricity0.0002032
Argument of Perigee31.5242
Mean Anonmoly194.0367
Mean Motion15.627594
Decay Rate-0.00033777
L11 46564U 20070AJ 20332.91668981 -.00033777 00000-0 -36444-3 0 9995
L22 46564 52.9986 184.7719 0002032 31.5242 194.0367 15.62759400 1805

Live tracking and technical data element details for STARLINK-1733 (NORAD 46564). STARLINK-1733 can be tracked NOW for your location showing map with azimuth and elevation plus other details from your city location.

Track the satellite on the map from your city or location and see movement details for azimuth, elevation, latitude, longitude, range, height, and movement on the map or in text.







IsCatalogInMostPopularTable: catalog: 46564, numindb: 11
Update: records affected: 1



GetName: 46564 STARLINK-1733

Hit Count: updated at: Sun, 29 Nov 2020 10:38:35 GMT